Location: Marcé
(47.5801°N, 0.3280°W)
Time: 17:23:14
(UTC+01:00)

SR - Pass Details

Date: 30 November 2021
Orbit: 582 x 872 km, 66.7° (Epoch: 22 January)

Event Time Altitude Azimuth Distance (km) Brightness Sun altitude
Rises 09:08:29 0° 329° (NNW) 2,815 ? 4.8°
Reaches altitude 10° 09:10:49 10° 338° (NNW) 1,918 ? 5.1°
Maximum altitude 09:14:51 39° 48° (NE) 900 ? 5.6°
Drops below altitude 10° 09:19:02 10° 118° (ESE) 1,987 ? 6.1°
Sets 09:21:28 0° 126° (SE) 2,929 ? 6.4°
